DIJAN TFFJ-TAPB

Flight info

Callsign DIJAN
Flight time 0h 30m
Altitude 1500
Route TNCS TFFJ TNCM
Aircraft BE58/L-SDES/EB2

Departure

Time 2026-04-19 09:09
Airport St. Jean Airport (TFFJ)

Arrival

Time 2026-04-19 09:40
Airport Burton-Nibbs International Airport (TAPB)
Time Latitude Longitude Altitude Speed Heading
2026-04-19 09:06 17.90466 -62.84626 49 ft 0 kts
2026-04-19 09:07 17.90484 -62.84633 52 ft 6 kts 294°
2026-04-19 09:07 17.90465 -62.84657 52 ft 2 kts 179°
2026-04-19 09:08 17.90432 -62.84647 48 ft 4 kts 91°
2026-04-19 09:09 17.90437 -62.84340 30 ft 79 kts 90°
2026-04-19 09:09 17.90489 -62.83657 236 ft 101 kts 70°
2026-04-19 09:09 17.90903 -62.83005 508 ft 113 kts 59°
2026-04-19 09:09 17.91256 -62.82211 690 ft 120 kts 80°
2026-04-19 09:10 17.91182 -62.81390 1131 ft 115 kts 111°
2026-04-19 09:10 17.90787 -62.80632 1472 ft 120 kts 120°
2026-04-19 09:10 17.90300 -62.79916 1853 ft 123 kts 123°
2026-04-19 09:10 17.89801 -62.79207 2106 ft 118 kts 124°
2026-04-19 09:11 17.89266 -62.78497 2250 ft 126 kts 125°
2026-04-19 09:11 17.88722 -62.77790 2472 ft 123 kts 124°
2026-04-19 09:11 17.88271 -62.77030 2635 ft 124 kts 114°
2026-04-19 09:11 17.87969 -62.76180 2807 ft 124 kts 108°
2026-04-19 09:12 17.87698 -62.75324 2997 ft 124 kts 109°
2026-04-19 09:12 17.87402 -62.74465 3154 ft 126 kts 111°
2026-04-19 09:12 17.87054 -62.73609 3313 ft 129 kts 112°
2026-04-19 09:12 17.86753 -62.72702 3391 ft 133 kts 107°
2026-04-19 09:13 17.86476 -62.71774 3479 ft 134 kts 107°
2026-04-19 09:13 17.86191 -62.70817 3497 ft 140 kts 107°
2026-04-19 09:13 17.85912 -62.69884 3490 ft 126 kts 107°
2026-04-19 09:13 17.85664 -62.69048 3487 ft 114 kts 107°
2026-04-19 09:14 17.85446 -62.68312 3490 ft 98 kts 106°
2026-04-19 09:14 17.85263 -62.67665 3486 ft 88 kts 106°
2026-04-19 09:14 17.85100 -62.67074 3487 ft 82 kts 107°
2026-04-19 09:14 17.84919 -62.66524 3484 ft 78 kts 109°
2026-04-19 09:15 17.84728 -62.65985 3480 ft 77 kts 112°
2026-04-19 09:15 17.84524 -62.65470 3306 ft 78 kts 112°
2026-04-19 09:15 17.84082 -62.64351 3218 ft 101 kts 112°
2026-04-19 09:16 17.83838 -62.63618 3240 ft 112 kts 109°
2026-04-19 09:16 17.83612 -62.62825 3368 ft 118 kts 107°
2026-04-19 09:16 17.83374 -62.61971 3492 ft 125 kts 107°
2026-04-19 09:16 17.83117 -62.61058 3513 ft 136 kts 107°
2026-04-19 09:17 17.82837 -62.60079 3522 ft 144 kts 107°
2026-04-19 09:17 17.82552 -62.59063 3520 ft 144 kts 107°
2026-04-19 09:17 17.82274 -62.58063 3519 ft 141 kts 107°
2026-04-19 09:17 17.81995 -62.57081 3513 ft 140 kts 107°
2026-04-19 09:18 17.81716 -62.56105 3511 ft 139 kts 107°
2026-04-19 09:18 17.81436 -62.55125 3504 ft 140 kts 107°
2026-04-19 09:18 17.81161 -62.54160 3505 ft 137 kts 107°
2026-04-19 09:18 17.80891 -62.53212 3501 ft 134 kts 107°
2026-04-19 09:19 17.80622 -62.52258 3498 ft 138 kts 107°
2026-04-19 09:19 17.80347 -62.51286 3503 ft 139 kts 107°
2026-04-19 09:19 17.80069 -62.50313 3504 ft 140 kts 107°
2026-04-19 09:19 17.79786 -62.49337 3504 ft 140 kts 107°
2026-04-19 09:20 17.79505 -62.48358 3499 ft 141 kts 107°
2026-04-19 09:20 17.79227 -62.47371 3498 ft 141 kts 107°
2026-04-19 09:20 17.78949 -62.46381 3507 ft 142 kts 107°
2026-04-19 09:20 17.78669 -62.45386 3503 ft 142 kts 107°
2026-04-19 09:21 17.78390 -62.44389 3498 ft 142 kts 107°
2026-04-19 09:21 17.78113 -62.43395 3500 ft 142 kts 107°
2026-04-19 09:21 17.77829 -62.42400 3496 ft 142 kts 107°
2026-04-19 09:21 17.77539 -62.41409 3497 ft 142 kts 107°
2026-04-19 09:22 17.77249 -62.40415 3500 ft 143 kts 107°
2026-04-19 09:22 17.76961 -62.39422 3500 ft 143 kts 107°
2026-04-19 09:22 17.76671 -62.38425 3499 ft 143 kts 107°
2026-04-19 09:22 17.76379 -62.37433 3497 ft 142 kts 107°
2026-04-19 09:23 17.76093 -62.36449 3496 ft 141 kts 107°
2026-04-19 09:23 17.75821 -62.35463 3499 ft 140 kts 107°
2026-04-19 09:23 17.75550 -62.34480 3500 ft 140 kts 107°
2026-04-19 09:23 17.75282 -62.33498 3498 ft 140 kts 107°
2026-04-19 09:24 17.75009 -62.32513 3495 ft 141 kts 107°
2026-04-19 09:24 17.74732 -62.31522 3502 ft 142 kts 107°
2026-04-19 09:24 17.74445 -62.30529 3495 ft 142 kts 107°
2026-04-19 09:24 17.74158 -62.29534 3497 ft 143 kts 107°
2026-04-19 09:25 17.73878 -62.28534 3504 ft 143 kts 107°
2026-04-19 09:25 17.73600 -62.27529 3502 ft 144 kts 107°
2026-04-19 09:25 17.73314 -62.26524 3504 ft 144 kts 107°
2026-04-19 09:25 17.73024 -62.25522 3504 ft 143 kts 107°
2026-04-19 09:26 17.72732 -62.24526 3503 ft 143 kts 107°
2026-04-19 09:26 17.72442 -62.23528 3504 ft 143 kts 107°
2026-04-19 09:26 17.72154 -62.22526 3503 ft 144 kts 107°
2026-04-19 09:26 17.71865 -62.21513 3502 ft 146 kts 107°
2026-04-19 09:27 17.71574 -62.20494 3498 ft 146 kts 107°
2026-04-19 09:27 17.71281 -62.19475 3498 ft 146 kts 107°
2026-04-19 09:27 17.70994 -62.18453 3499 ft 146 kts 107°
2026-04-19 09:27 17.70704 -62.17440 3500 ft 144 kts 107°
2026-04-19 09:28 17.70405 -62.16440 3498 ft 143 kts 107°
2026-04-19 09:28 17.70105 -62.15445 3503 ft 143 kts 107°
2026-04-19 09:28 17.69805 -62.14446 3501 ft 144 kts 107°
2026-04-19 09:28 17.69507 -62.13447 3497 ft 143 kts 107°
2026-04-19 09:29 17.69207 -62.12450 3500 ft 143 kts 107°
2026-04-19 09:29 17.68914 -62.11449 3501 ft 143 kts 107°
2026-04-19 09:29 17.68627 -62.10451 3500 ft 143 kts 107°
2026-04-19 09:29 17.68341 -62.09455 3501 ft 142 kts 107°
2026-04-19 09:30 17.68058 -62.08465 3498 ft 142 kts 107°
2026-04-19 09:30 17.67780 -62.07477 3500 ft 141 kts 106°
2026-04-19 09:30 17.67490 -62.06493 3504 ft 141 kts 107°
2026-04-19 09:30 17.67194 -62.05510 3501 ft 141 kts 107°
2026-04-19 09:31 17.66900 -62.04532 3501 ft 140 kts 107°
2026-04-19 09:31 17.66606 -62.03557 3500 ft 141 kts 107°
2026-04-19 09:31 17.66311 -62.02574 3505 ft 142 kts 107°
2026-04-19 09:31 17.66014 -62.01588 3504 ft 142 kts 107°
2026-04-19 09:32 17.65818 -62.00923 3509 ft 142 kts 107°
2026-04-19 09:32 17.65533 -61.99934 3508 ft 142 kts 107°
2026-04-19 09:32 17.65246 -61.98943 3509 ft 142 kts 107°
2026-04-19 09:32 17.64956 -61.97954 3507 ft 142 kts 107°
2026-04-19 09:33 17.64667 -61.96968 3504 ft 140 kts 107°
2026-04-19 09:33 17.64386 -61.95995 3502 ft 139 kts 107°
2026-04-19 09:33 17.64106 -61.95023 3504 ft 139 kts 107°
2026-04-19 09:33 17.63826 -61.94050 3500 ft 139 kts 107°
2026-04-19 09:34 17.63603 -61.93097 3308 ft 136 kts 98°
2026-04-19 09:34 17.63590 -61.92105 3117 ft 136 kts 88°
2026-04-19 09:34 17.63855 -61.91177 3046 ft 129 kts 68°
2026-04-19 09:34 17.64246 -61.90348 2886 ft 130 kts 71°
2026-04-19 09:35 17.64557 -61.89438 2617 ft 135 kts 82°
2026-04-19 09:35 17.64558 -61.88469 2419 ft 131 kts 100°
2026-04-19 09:35 17.64442 -61.87563 2006 ft 123 kts 85°
2026-04-19 09:35 17.64925 -61.86854 1483 ft 130 kts 35°
2026-04-19 09:36 17.65862 -61.86773 856 ft 144 kts 356°
2026-04-19 09:36 17.66823 -61.87057 553 ft 141 kts 357°
2026-04-19 09:36 17.67770 -61.87198 515 ft 135 kts 11°
2026-04-19 09:36 17.68669 -61.87050 484 ft 127 kts 30°
2026-04-19 09:37 17.69318 -61.86515 538 ft 114 kts 68°
2026-04-19 09:37 17.69307 -61.85748 619 ft 116 kts 129°
2026-04-19 09:37 17.68488 -61.85566 770 ft 136 kts 180°
2026-04-19 09:37 17.67544 -61.85731 750 ft 139 kts 183°
2026-04-19 09:38 17.66602 -61.85848 789 ft 132 kts 176°
2026-04-19 09:38 17.65714 -61.85882 824 ft 124 kts 174°
2026-04-19 09:38 17.64863 -61.85875 780 ft 121 kts 166°
2026-04-19 09:38 17.64067 -61.85673 714 ft 116 kts 147°
2026-04-19 09:39 17.63543 -61.85089 572 ft 112 kts 107°
2026-04-19 09:39 17.63509 -61.84286 387 ft 105 kts 86°
2026-04-19 09:39 17.63548 -61.83621 172 ft 85 kts 88°
2026-04-19 09:39 17.63590 -61.83005 15 ft 81 kts 88°
2026-04-19 09:40 17.63613 -61.82620 14 ft 24 kts 88°
2026-04-19 09:40 17.63621 -61.82475 17 ft 16 kts 88°
2026-04-19 09:40 17.63633 -61.82402 18 ft 3 kts 335°
2026-04-19 09:40 17.63626 -61.82477 17 ft 17 kts 265°
2026-04-19 09:41 17.63613 -61.82608 14 ft 16 kts 266°
2026-04-19 09:41 17.63651 -61.82650 13 ft 8 kts 320°
2026-04-19 09:41 17.63652 -61.82677 12 ft 0 kts 328°
2026-04-19 09:41 17.63652 -61.82678 12 ft 0 kts 329°